This demonstration page uses our WeatherBlox Daily Observations layout. Learn more.

40.92945, -100.16068

Hourly Observations for April 13, 2018

Temp ( °F °C ) Dew Point ( °F °C ) Humidity (%) Winds ( mph kmh ) Pressure ( in mb ) Visibility ( mi km ) Precip ( " mm )
12:15 am 00:15 Clear 54 12.2 41 4.8 61 61 NE 18 30 29.32 993 10 16.0934 0 0
12:35 am 00:35 Clear 53 11.8 41 4.8 62 62 NE 22 35 29.32 993 10 16.0934 0 0
12:55 am 00:55 Clear 52 11 41 5 67 67 NE 20 31 29.32 993 10 16.0934 0 0
1:15 am 01:15 Clear 52 10.9 41 5 67 67 NE 13 20 29.38 995 10 16.0934 0 0
1:35 am 01:35 Clear 51 10.7 41 5 68 68 NE 23 37 29.32 993 10 16.0934 0 0
1:55 am 01:55 Clear 50 10 41 4.8 70 70 NE 17 28 29.35 994 10 16.0934 0 0
2:15 am 02:15 Clear 49 9.7 41 4.9 72 72 NNE 15 24 29.35 994 10 16.0934 0 0
2:35 am 02:35 Clear 49 9.3 41 4.8 74 74 NNE 16 26 29.35 994 10 16.0934 0 0
2:55 am 02:55 Clear 48 8.8 41 5 77 77 NE 13 20 29.35 994 10 16.0934 0 0
3:15 am 03:15 Partly Cloudy 48 8.7 41 5 78 78 NNE 17 28 29.35 994 10 16.0934 0 0
3:35 am 03:35 Cloudy 47 8.6 41 5.1 79 79 NNE 15 24 29.35 994 10 16.0934 0 0
3:55 am 03:55 Cloudy 48 8.7 42 5.3 79 79 N 16 26 29.35 994 10 16.0934 0 0
4:15 am 04:15 Cloudy 47 8.6 42 5.4 81 81 N 20 31 29.38 995 10 16.0934 0 0
4:35 am 04:35 Cloudy 47 8.5 42 5.3 81 81 N 16 26 29.38 995 10 16.0934 0 0
4:55 am 04:55 Cloudy 47 8.5 42 5.3 81 81 N 20 31 29.38 995 10 16.0934 0 0
5:15 am 05:15 Cloudy 47 8.5 42 5.4 81 81 N 18 30 29.38 995 10 16.0934 0 0
5:35 am 05:35 Cloudy 47 8.3 41 5.2 81 81 N 20 31 29.41 996 7 11.26538 0 0
5:55 am 05:55 Cloudy 47 8.1 41 5.1 82 82 NNE 21 33 29.38 995 7 11.26538 0 0
6:15 am 06:15 Cloudy 46 7.7 41 5 83 83 N 28 44 29.38 995 7 11.26538 0 0
6:35 am 06:35 Cloudy 45 7.1 40 4.6 84 84 N 26 43 29.41 996 7 11.26538 0 0
6:55 am 06:55 Cloudy with Haze 45 7 40 4.5 84 84 NNE 22 35 29.47 998 5 8.0467 0 0
7:15 am 07:15 Cloudy with Mist and Fog 44 6.5 40 4.3 86 86 NNE 16 26 29.47 998 4 6.43736 0 0
7:35 am 07:35 Cloudy with Mist and Fog 43 6.2 40 4.5 89 89 N 24 39 29.47 998 3 4.82802 0 0
7:55 am 07:55 Cloudy with Mist and Fog 42 5.7 40 4.2 90 90 N 22 35 29.47 998 1.5 2.41401 0 0
8:15 am 08:15 Cloudy with Mist and Fog 42 5.5 39 4.1 91 91 N 21 33 29.47 998 1.75 2.816345 0 0
8:35 am 08:35 Cloudy with Mist and Fog 42 5.5 39 4 90 90 N 21 33 29.47 998 2.5 4.02335 0 0
8:55 am 08:55 Cloudy with Mist and Fog 41 5.2 38 3.6 90 90 N 22 35 29.47 998 3 4.82802 0 0
9:15 am 09:15 Cloudy with Mist and Fog 41 5.1 38 3.4 89 89 N 24 39 29.47 998 5 8.0467 0 0
9:35 am 09:35 Cloudy 41 5.1 37 3 86 86 N 28 44 29.44 997 10 16.0934 0 0
9:55 am 09:55 Cloudy 41 5 37 2.6 85 85 N 23 37 29.47 998 10 16.0934 0 0
10:15 am 10:15 Cloudy 40 4.7 37 2.5 86 86 N 23 37 29.47 998 7 11.26538 0 0
10:35 am 10:35 Cloudy with Mist and Fog 40 4.4 36 2.4 87 87 N 20 31 29.5 999 4 6.43736 0 0
10:55 am 10:55 Cloudy with Mist and Fog 40 4.5 37 2.7 88 88 N 22 35 29.5 999 2.5 4.02335 0 0
11:15 am 11:15 Cloudy with Mist and Fog 40 4.3 37 2.7 89 89 N 18 30 29.53 1000 3 4.82802 0 0
11:35 am 11:35 Cloudy with Mist and Fog 40 4.3 37 2.6 89 89 NNE 20 31 29.5 999 4 6.43736 0 0
11:55 am 11:55 Cloudy with Mist and Fog 40 4.4 37 2.5 88 88 N 24 39 29.5 999 5 8.0467 0 0
12:15 pm 12:15 Cloudy with Mist and Fog 39 4.1 36 2 86 86 NNE 25 41 29.5 999 5 8.0467 0 0
12:35 pm 12:35 Cloudy 40 4.2 35 1.6 83 83 N 22 35 29.53 1000 10 16.0934 0 0
12:55 pm 12:55 Cloudy 39 3.9 34 1.2 83 83 N 21 33 29.53 1000 10 16.0934 0 0
1:15 pm 13:15 Cloudy with Mist and Fog 39 3.8 35 1.4 85 85 N 23 37 29.53 1000 5 8.0467 0 0
1:35 pm 13:35 Cloudy with Light Drizzle 38 3.5 35 1.6 88 88 N 22 35 29.53 1000 2.5 4.02335 0 0
1:55 pm 13:55 Cloudy with Light Rain 38 3.5 35 1.7 88 88 N 24 39 29.53 1000 2 3.21868 0 0
2:15 pm 14:15 Cloudy with Light Rain 38 3.5 35 1.8 89 89 N 22 35 29.56 1001 2 3.21868 0 0
2:35 pm 14:35 Cloudy with Light Rain 39 3.7 36 2.1 89 89 N 24 39 29.56 1001 3 4.82802 0 0
2:55 pm 14:55 Cloudy with Light Rain 38 3.6 36 2 89 89 N 21 33 29.59 1002 2.5 4.02335 0.01 0.254
3:15 pm 15:15 Cloudy with Nearby Thunderstorms 38 3.1 35 1.4 89 89 N 28 44 29.59 1002 1.75 2.816345 0 0
3:35 pm 15:35 Cloudy with Light Rain 37 2.9 34 1.1 88 88 N 23 37 29.59 1002 3 4.82802 0 0
3:55 pm 15:55 Cloudy with Mist and Fog 36 2.1 32 0.1 87 87 NNW 30 48 29.65 1004 3 4.82802 0 0
4:15 pm 16:15 Cloudy with Mist and Fog 35 1.8 32 0 88 88 N 29 46 29.65 1004 4 6.43736 0 0
4:35 pm 16:35 Cloudy with Light Rain 34 1.3 31 -0.5 88 88 N 30 48 29.65 1004 3 4.82802 0 0
4:55 pm 16:55 Cloudy with Light Rain 34 1 31 -0.6 89 89 N 29 46 29.65 1004 2 3.21868 0 0
5:15 pm 17:15 Cloudy with Mist and Fog 33 0.7 31 -0.8 90 90 N 28 44 29.65 1004 2.5 4.02335 0 0
5:35 pm 17:35 Cloudy with Mist and Fog 32 0.1 29 -1.5 89 89 N 30 48 29.68 1005 3 4.82802 0 0
5:55 pm 17:55 Cloudy with Mist and Fog 32 0 28 -2 87 87 N 29 46 29.74 1007 3 4.82802 0 0
6:15 pm 18:15 Cloudy with Mist and Fog 32 -0.2 28 -2.1 87 87 N 24 39 29.74 1007 3 4.82802 0 0
6:35 pm 18:35 Cloudy with Light Wintry Mix 31 -0.3 28 -2.3 87 87 N 28 44 29.77 1008 3 4.82802 0 0
6:55 pm 18:55 Cloudy with Light Wintry Mix 31 -0.5 28 -2.5 87 87 N 23 37 29.8 1009 3 4.82802 0 0
7:15 pm 19:15 Cloudy with Light Wintry Mix 31 -0.7 27 -2.7 87 87 N 24 39 29.8 1009 3 4.82802 0 0
7:35 pm 19:35 Windy with Snow Likely 30 -1 27 -3 86 86 N 24 39 29.8 1009 1.75 2.816345 0.01 0.254
7:55 pm 19:55 Windy with Snow Likely 30 -1.1 26 -3.1 86 86 N 26 43 29.8 1009 1 1.60934 0.01 0.254
8:15 pm 20:15 Windy with Snow Likely 29 -1.5 26 -3.3 88 88 N 24 39 29.83 1010 0.75 1.207005 0.01 0.254
8:35 pm 20:35 Cloudy with Snow 29 -1.8 26 -3.5 88 88 NNW 24 39 29.83 1010 0.75 1.207005 0.02 0.508
8:55 pm 20:55 Cloudy with Snow 28 -2 26 -3.6 89 89 NNW 23 37 29.85 1011 0.5 0.80467 0.02 0.508
9:15 pm 21:15 Cloudy with Snow 28 -2.3 25 -3.8 90 90 NNW 26 43 29.88 1012 0.75 1.207005 0 0
9:35 pm 21:35 Cloudy 28 -2.5 25 -4 90 90 NNW 30 48 29.88 1012 N/A 0.01 0.254
9:55 pm 21:55 Cloudy 27 -2.6 25 -4 90 90 NNW 28 44 29.88 1012 N/A 0.01 0.254
10:15 pm 22:15 Cloudy 27 -2.7 24 -4.2 90 90 NNW 30 48 29.91 1013 N/A 0 0
10:35 pm 22:35 Cloudy 27 -2.8 24 -4.5 88 88 NNW 29 46 29.91 1013 N/A 0 0
10:55 pm 22:55 Cloudy 27 -2.8 24 -4.5 88 88 NNW 28 44 29.91 1013 N/A 0 0
11:15 pm 23:15 Cloudy 27 -3 24 -4.6 89 89 NNW 29 46 29.91 1013 N/A 0 0
11:35 pm 23:35 Cloudy 26 -3.1 23 -4.8 88 88 NNW 30 48 29.91 1013 N/A 0 0
11:55 pm 23:55 Cloudy 26 -3.2 23 -5 88 88 NNW 29 46 29.91 1013 N/A 0 0

Powered by AerisWeather